"Sample Date","Sample Time","Sample Value","Units","Flow Rate","Sample Interval","Number Channels","Micron Size 0","Counts/Channel 0","Micron Size 1","Counts/Channel 1","Micron Size 2","Counts/Channel 2","Micron Size 3","Counts/Channel 3","Micron Size 4","Counts/Channel 4","Micron Size 5","Counts/Channel 5","Micron Size 6","Counts/Channel 6","Micron Size 7","Counts/Channel 7","Micron Size 8","Counts/Channel 8","Micron Size 9","Counts/Channel 9","Micron Size 10","Counts/Channel 10","Micron Size 11","Counts/Channel 11","Micron Size 12","Counts/Channel 12","Micron Size 13","Counts/Channel 13","Micron Size 14","Counts/Channel 14","Micron Size 15","Counts/Channel 15","Micron Size 16","Counts/Channel 16","Micron Size 17","Counts/Channel 17","Micron Size 18","Counts/Channel 18","Micron Size 19","Counts/Channel 19","Micron Size 20","Counts/Channel 20","Micron Size 21","Counts/Channel 21","Micron Size 22","Counts/Channel 22","Micron Size 23","Counts/Channel 23","Micron Size 24","Counts/Channel 24","Micron Size 25","Counts/Channel 25","Micron Size 26","Counts/Channel 26","Micron Size 27","Counts/Channel 27","Micron Size 28","Counts/Channel 28","Micron Size 29","Counts/Channel 29","Micron Size 30","Counts/Channel 30","Micron Size 31","Counts/Channel 31"
"03/05/08","15:00:00",37527.000,"cc",28390.994,6.00,6,0.100,30170.000,0.200,4205.000,0.300,1259.000,0.500,1362.000,1.000,531.000,5.000,0
"03/05/08","15:00:06",37832.000,"cc",28292.996,6.00,6,0.100,30490.000,0.200,4177.000,0.300,1271.000,0.500,1375.000,1.000,519.000,5.000,0
"03/05/08","15:00:12",37751.000,"cc",28300.523,6.00,6,0.100,30284.000,0.200,4146.000,0.300,1380.000,0.500,1405.000,1.000,536.000,5.000,0
"03/05/08","15:00:18",38080.000,"cc",28228.154,6.00,6,0.100,30532.000,0.200,4164.000,0.300,1361.000,0.500,1491.000,1.000,532.000,5.000,0
"03/05/08","15:00:24",38103.000,"cc",28347.594,6.00,6,0.100,30749.000,0.200,4163.000,0.300,1215.000,0.500,1442.000,1.000,534.000,5.000,0
"03/05/08","15:00:30",37818.000,"cc",28277.576,6.00,6,0.100,30632.000,0.200,4085.000,0.300,1259.000,0.500,1326.000,1.000,516.000,5.000,0
"03/05/08","15:00:36",38111.000,"cc",28351.295,6.00,6,0.100,30871.000,0.200,4095.000,0.300,1292.000,0.500,1368.000,1.000,485.000,5.000,0
"03/05/08","15:00:42",37868.000,"cc",28375.945,6.00,6,0.100,30676.000,0.200,4102.000,0.300,1237.000,0.500,1330.000,1.000,523.000,5.000,0
"03/05/08","15:00:48",37856.000,"cc",28314.732,6.00,6,0.100,30444.000,0.200,4205.000,0.300,1299.000,0.500,1375.000,1.000,533.000,5.000,0
"03/05/08","15:00:54",37341.000,"cc",28326.205,6.00,6,0.100,29987.000,0.200,4151.000,0.300,1289.000,0.500,1345.000,1.000,569.000,5.000,0
"03/05/08","15:01:00",38144.000,"cc",28293.883,6.00,6,0.100,30793.000,0.200,4084.000,0.300,1324.000,0.500,1412.000,1.000,531.000,5.000,0
"03/05/08","15:01:06",38265.000,"cc",28302.565,6.00,6,0.100,30919.000,0.200,4157.000,0.300,1291.000,0.500,1376.000,1.000,522.000,5.000,0
"03/05/08","15:01:12",38378.000,"cc",28281.856,6.00,6,0.100,30954.000,0.200,4219.000,0.300,1302.000,0.500,1401.000,1.000,502.000,5.000,0
"03/05/08","15:01:18",38711.000,"cc",28322.398,6.00,6,0.100,31234.000,0.200,4288.000,0.300,1300.000,0.500,1413.000,1.000,476.000,5.000,0
"03/05/08","15:01:24",38768.000,"cc",28310.785,6.00,6,0.100,31344.000,0.200,4200.000,0.300,1280.000,0.500,1403.000,1.000,541.000,5.000,0
"03/05/08","15:01:30",39161.000,"cc",28308.482,6.00,6,0.100,31628.000,0.200,4338.000,0.300,1288.000,0.500,1372.000,1.000,535.000,5.000,0
"03/05/08","15:01:36",39121.000,"cc",28315.033,6.00,6,0.100,31753.000,0.200,4268.000,0.300,1236.000,0.500,1337.000,1.000,527.000,5.000,0
"03/05/08","15:01:42",38703.000,"cc",28408.754,6.00,6,0.100,31395.000,0.200,4200.000,0.300,1214.000,0.500,1388.000,1.000,506.000,5.000,0
"03/05/08","15:01:48",38580.000,"cc",28302.320,6.00,6,0.100,31444.000,0.200,4172.000,0.300,1241.000,0.500,1247.000,1.000,476.000,5.000,0
"03/05/08","15:01:54",38791.000,"cc",28256.231,6.00,6,0.100,31556.000,0.200,4148.000,0.300,1229.000,0.500,1311.000,1.000,547.000,5.000,0
"03/05/08","15:02:00",38813.000,"cc",28269.336,6.00,6,0.100,31579.000,0.200,4175.000,0.300,1210.000,0.500,1367.000,1.000,482.000,5.000,0
"03/05/08","15:02:06",39012.000,"cc",28378.647,6.00,6,0.100,31740.000,0.200,4183.000,0.300,1201.000,0.500,1354.000,1.000,534.000,5.000,0
"03/05/08","15:02:12",38290.000,"cc",28233.750,6.00,6,0.100,31246.000,0.200,4120.000,0.300,1216.000,0.500,1237.000,1.000,471.000,5.000,0
"03/05/08","15:02:18",38108.000,"cc",28343.160,6.00,6,0.100,30954.000,0.200,4177.000,0.300,1209.000,0.500,1300.000,1.000,468.000,5.000,0
"03/05/08","15:02:24",38414.000,"cc",28369.633,6.00,6,0.100,31153.000,0.200,4088.000,0.300,1240.000,0.500,1425.000,1.000,508.000,5.000,0
"03/05/08","15:02:30",38324.000,"cc",28299.063,6.00,6,0.100,30983.000,0.200,4169.000,0.300,1315.000,0.500,1342.000,1.000,515.000,5.000,0
"03/05/08","15:02:36",38165.000,"cc",28345.836,6.00,6,0.100,30806.000,0.200,4174.000,0.300,1250.000,0.500,1364.000,1.000,571.000,5.000,0
"03/05/08","15:02:42",38580.000,"cc",28269.568,6.00,6,0.100,31251.000,0.200,4254.000,0.300,1214.000,0.500,1368.000,1.000,493.000,5.000,0
"03/05/08","15:02:48",38530.000,"cc",28297.807,6.00,6,0.100,31178.000,0.200,4090.000,0.300,1314.000,0.500,1430.000,1.000,518.000,5.000,0
"03/05/08","15:02:54",38261.000,"cc",28400.934,6.00,6,0.100,30635.000,0.200,4300.000,0.300,1322.000,0.500,1454.000,1.000,550.000,5.000,0
"03/05/08","15:03:00",38499.000,"cc",28310.883,6.00,6,0.100,31199.000,0.200,4109.000,0.300,1294.000,0.500,1419.000,1.000,478.000,5.000,0
"03/05/08","15:03:06",38506.000,"cc",28237.607,6.00,6,0.100,31127.000,0.200,4243.000,0.300,1241.000,0.500,1383.000,1.000,512.000,5.000,0
"03/05/08","15:03:12",38868.000,"cc",28325.313,6.00,6,0.100,31563.000,0.200,4165.000,0.300,1264.000,0.500,1403.000,1.000,473.000,5.000,0
"03/05/08","15:03:18",39307.000,"cc",28408.965,6.00,6,0.100,31972.000,0.200,4251.000,0.300,1239.000,0.500,1310.000,1.000,535.000,5.000,0
"03/05/08","15:03:24",39033.000,"cc",28249.107,6.00,6,0.100,31934.000,0.200,4181.000,0.300,1195.000,0.500,1260.000,1.000,463.000,5.000,0
"03/05/08","15:03:30",39477.000,"cc",28282.279,6.00,6,0.100,32161.000,0.200,4299.000,0.300,1233.000,0.500,1285.000,1.000,499.000,5.000,0
"03/05/08","15:03:36",40016.000,"cc",28312.066,6.00,6,0.100,32671.000,0.200,4292.000,0.300,1215.000,0.500,1361.000,1.000,477.000,5.000,0
"03/05/08","15:03:42",39556.000,"cc",28255.641,6.00,6,0.100,32296.000,0.200,4292.000,0.300,1200.000,0.500,1299.000,1.000,469.000,5.000,0
"03/05/08","15:03:48",39264.000,"cc",28334.414,6.00,6,0.100,32199.000,0.200,4169.000,0.300,1158.000,0.500,1273.000,1.000,465.000,5.000,0
"03/05/08","15:03:54",39632.000,"cc",28297.535,6.00,6,0.100,32229.000,0.200,4347.000,0.300,1260.000,0.500,1287.000,1.000,509.000,5.000,0
"03/05/08","15:04:00",39008.000,"cc",28391.074,6.00,6,0.100,31534.000,0.200,4235.000,0.300,1309.000,0.500,1408.000,1.000,522.000,5.000,0
"03/05/08","15:04:06",38953.000,"cc",28418.777,6.00,6,0.100,31686.000,0.200,4232.000,0.300,1249.000,0.500,1332.000,1.000,454.000,5.000,0
"03/05/08","15:04:12",38511.000,"cc",28279.926,6.00,6,0.100,31298.000,0.200,4042.000,0.300,1278.000,0.500,1346.000,1.000,547.000,5.000,0
"03/05/08","15:04:18",38733.000,"cc",28346.982,6.00,6,0.100,31243.000,0.200,4315.000,0.300,1327.000,0.500,1356.000,1.000,492.000,5.000,0
"03/05/08","15:04:24",38872.000,"cc",28254.473,6.00,6,0.100,31643.000,0.200,4179.000,0.300,1226.000,0.500,1336.000,1.000,488.000,5.000,0
"03/05/08","15:04:30",38602.000,"cc",28366.787,6.00,6,0.100,31659.000,0.200,4029.000,0.300,1151.000,0.500,1235.000,1.000,528.000,5.000,0
"03/05/08","15:04:36",38241.000,"cc",28353.277,6.00,6,0.100,31151.000,0.200,4107.000,0.300,1231.000,0.500,1292.000,1.000,460.000,5.000,0
"03/05/08","15:04:42",38325.000,"cc",28260.232,6.00,6,0.100,31116.000,0.200,4132.000,0.300,1217.000,0.500,1358.000,1.000,502.000,5.000,0
"03/05/08","15:04:48",38666.000,"cc",28319.262,6.00,6,0.100,31321.000,0.200,4211.000,0.300,1288.000,0.500,1336.000,1.000,510.000,5.000,0
"03/05/08","15:04:54",37979.000,"cc",28308.924,6.00,6,0.100,30846.000,0.200,4051.000,0.300,1262.000,0.500,1314.000,1.000,506.000,5.000,0
"03/05/08","15:05:00",38416.000,"cc",28326.170,6.00,6,0.100,31190.000,0.200,4094.000,0.300,1242.000,0.500,1417.000,1.000,473.000,5.000,0
"03/05/08","15:05:06",37930.000,"cc",28339.664,6.00,6,0.100,30726.000,0.200,4143.000,0.300,1227.000,0.500,1313.000,1.000,521.000,5.000,0
"03/05/08","15:05:12",38244.000,"cc",28304.713,6.00,6,0.100,31157.000,0.200,4006.000,0.300,1247.000,0.500,1350.000,1.000,484.000,5.000,0
"03/05/08","15:05:18",37857.000,"cc",28304.264,6.00,6,0.100,30930.000,0.200,3924.000,0.300,1231.000,0.500,1297.000,1.000,475.000,5.000,0
"03/05/08","15:05:24",38058.000,"cc",28305.270,6.00,6,0.100,30736.000,0.200,4112.000,0.300,1304.000,0.500,1423.000,1.000,483.000,5.000,0
"03/05/08","15:05:30",38542.000,"cc",28252.430,6.00,6,0.100,31261.000,0.200,4158.000,0.300,1247.000,0.500,1380.000,1.000,496.000,5.000,0
"03/05/08","15:05:36",38173.000,"cc",28350.758,6.00,6,0.100,30764.000,0.200,4156.000,0.300,1281.000,0.500,1425.000,1.000,547.000,5.000,0
"03/05/08","15:05:42",38380.000,"cc",28395.922,6.00,6,0.100,31090.000,0.200,4100.000,0.300,1331.000,0.500,1349.000,1.000,510.000,5.000,0
"03/05/08","15:05:48",37859.000,"cc",28283.779,6.00,6,0.100,30585.000,0.200,4054.000,0.300,1362.000,0.500,1349.000,1.000,509.000,5.000,0
"03/05/08","15:05:54",37993.000,"cc",28327.791,6.00,6,0.100,30571.000,0.200,4157.000,0.300,1312.000,0.500,1420.000,1.000,533.000,5.000,0
"03/05/08","15:06:00",39025.000,"cc",28310.273,6.00,6,0.100,31569.000,0.200,4142.000,0.300,1365.000,0.500,1453.000,1.000,496.000,5.000,0
"03/05/08","15:06:06",40157.000,"cc",28332.270,6.00,6,0.100,32581.000,0.200,4188.000,0.300,1366.000,0.500,1450.000,1.000,572.000,5.000,0
"03/05/08","15:06:12",39755.000,"cc",28354.496,6.00,6,0.100,32278.000,0.200,4304.000,0.300,1303.000,0.500,1392.000,1.000,478.000,5.000,0
"03/05/08","15:06:18",39838.000,"cc",28383.484,6.00,6,0.100,32466.000,0.200,4210.000,0.300,1291.000,0.500,1355.000,1.000,516.000,5.000,0
"03/05/08","15:06:24",39766.000,"cc",28368.617,6.00,6,0.100,32409.000,0.200,4244.000,0.300,1263.000,0.500,1349.000,1.000,501.000,5.000,0
"03/05/08","15:06:30",39989.000,"cc",28241.742,6.00,6,0.100,32667.000,0.200,4244.000,0.300,1198.000,0.500,1350.000,1.000,530.000,5.000,0
"03/05/08","15:06:36",40611.000,"cc",28259.834,6.00,6,0.100,33197.000,0.200,4316.000,0.300,1235.000,0.500,1357.000,1.000,506.000,5.000,0
"03/05/08","15:06:42",40542.000,"cc",28293.998,6.00,6,0.100,33090.000,0.200,4217.000,0.300,1260.000,0.500,1444.000,1.000,531.000,5.000,0
"03/05/08","15:06:48",40764.000,"cc",28282.055,6.00,6,0.100,33156.000,0.200,4429.000,0.300,1266.000,0.500,1403.000,1.000,510.000,5.000,0
"03/05/08","15:06:54",39882.000,"cc",28359.234,6.00,6,0.100,32644.000,0.200,4200.000,0.300,1264.000,0.500,1281.000,1.000,493.000,5.000,0
"03/05/08","15:07:00",40536.000,"cc",28269.648,6.00,6,0.100,33093.000,0.200,4301.000,0.300,1239.000,0.500,1376.000,1.000,527.000,5.000,0
"03/05/08","15:07:06",40427.000,"cc",28352.852,6.00,6,0.100,33090.000,0.200,4235.000,0.300,1267.000,0.500,1330.000,1.000,505.000,5.000,0
"03/05/08","15:07:12",39905.000,"cc",28364.428,6.00,6,0.100,32487.000,0.200,4329.000,0.300,1258.000,0.500,1333.000,1.000,498.000,5.000,0
"03/05/08","15:07:18",39901.000,"cc",28299.990,6.00,6,0.100,32371.000,0.200,4325.000,0.300,1305.000,0.500,1398.000,1.000,502.000,5.000,0
"03/05/08","15:07:24",40832.000,"cc",28374.981,6.00,6,0.100,33229.000,0.200,4342.000,0.300,1305.000,0.500,1398.000,1.000,558.000,5.000,0
"03/05/08","15:07:30",40914.000,"cc",28287.865,6.00,6,0.100,33463.000,0.200,4319.000,0.300,1246.000,0.500,1340.000,1.000,546.000,5.000,0
"03/05/08","15:07:36",40991.000,"cc",28365.375,6.00,6,0.100,33589.000,0.200,4304.000,0.300,1215.000,0.500,1344.000,1.000,539.000,5.000,0
"03/05/08","15:07:42",41181.000,"cc",28269.697,6.00,6,0.100,33742.000,0.200,4373.000,0.300,1251.000,0.500,1308.000,1.000,507.000,5.000,0
"03/05/08","15:07:48",40597.000,"cc",28333.115,6.00,6,0.100,33200.000,0.200,4311.000,0.300,1287.000,0.500,1295.000,1.000,504.000,5.000,0
"03/05/08","15:07:54",40468.000,"cc",28297.918,6.00,6,0.100,33153.000,0.200,4282.000,0.300,1205.000,0.500,1325.000,1.000,503.000,5.000,0
"03/05/08","15:08:00",40704.000,"cc",28318.807,6.00,6,0.100,33440.000,0.200,4333.000,0.300,1186.000,0.500,1269.000,1.000,476.000,5.000,0
"03/05/08","15:08:06",40614.000,"cc",28378.014,6.00,6,0.100,33262.000,0.200,4294.000,0.300,1228.000,0.500,1321.000,1.000,509.000,5.000,0
"03/05/08","15:08:12",40676.000,"cc",28275.662,6.00,6,0.100,33271.000,0.200,4260.000,0.300,1265.000,0.500,1392.000,1.000,488.000,5.000,0
"03/05/08","15:08:18",41095.000,"cc",28302.529,6.00,6,0.100,33353.000,0.200,4517.000,0.300,1288.000,0.500,1425.000,1.000,512.000,5.000,0
"03/05/08","15:08:24",40838.000,"cc",28311.742,6.00,6,0.100,33496.000,0.200,4344.000,0.300,1233.000,0.500,1283.000,1.000,482.000,5.000,0
"03/05/08","15:08:30",40879.000,"cc",28320.815,6.00,6,0.100,33392.000,0.200,4344.000,0.300,1295.000,0.500,1347.000,1.000,501.000,5.000,0
"03/05/08","15:08:36",40798.000,"cc",28287.783,6.00,6,0.100,33311.000,0.200,4419.000,0.300,1255.000,0.500,1313.000,1.000,500.000,5.000,0
"03/05/08","15:08:42",40579.000,"cc",28341.797,6.00,6,0.100,33332.000,0.200,4337.000,0.300,1172.000,0.500,1276.000,1.000,462.000,5.000,0
"03/05/08","15:08:48",40469.000,"cc",28318.826,6.00,6,0.100,33128.000,0.200,4343.000,0.300,1215.000,0.500,1281.000,1.000,502.000,5.000,0
"03/05/08","15:08:54",40342.000,"cc",28375.525,6.00,6,0.100,32908.000,0.200,4331.000,0.300,1262.000,0.500,1333.000,1.000,508.000,5.000,0
"03/05/08","15:09:00",40255.000,"cc",28228.135,6.00,6,0.100,33016.000,0.200,4291.000,0.300,1162.000,0.500,1277.000,1.000,509.000,5.000,0
"03/05/08","15:09:06",40026.000,"cc",28260.652,6.00,6,0.100,32888.000,0.200,4159.000,0.300,1190.000,0.500,1307.000,1.000,482.000,5.000,0
"03/05/08","15:09:12",40166.000,"cc",28335.057,6.00,6,0.100,32811.000,0.200,4290.000,0.300,1256.000,0.500,1343.000,1.000,466.000,5.000,0
"03/05/08","15:09:18",39833.000,"cc",28441.463,6.00,6,0.100,32472.000,0.200,4293.000,0.300,1215.000,0.500,1352.000,1.000,501.000,5.000,0
"03/05/08","15:09:24",39996.000,"cc",28300.492,6.00,6,0.100,32694.000,0.200,4258.000,0.300,1234.000,0.500,1326.000,1.000,484.000,5.000,0
"03/05/08","15:09:30",39641.000,"cc",28302.594,6.00,6,0.100,32429.000,0.200,4152.000,0.300,1217.000,0.500,1334.000,1.000,509.000,5.000,0
"03/05/08","15:09:36",39515.000,"cc",28327.281,6.00,6,0.100,32324.000,0.200,4241.000,0.300,1224.000,0.500,1299.000,1.000,427.000,5.000,0
"03/05/08","15:09:42",39592.000,"cc",28375.102,6.00,6,0.100,32416.000,0.200,4127.000,0.300,1207.000,0.500,1318.000,1.000,524.000,5.000,0
"03/05/08","15:09:48",39667.000,"cc",28224.889,6.00,6,0.100,32435.000,0.200,4186.000,0.300,1244.000,0.500,1266.000,1.000,536.000,5.000,0
"03/05/08","15:09:54",39384.000,"cc",28318.287,6.00,6,0.100,32278.000,0.200,4151.000,0.300,1202.000,0.500,1294.000,1.000,459.000,5.000,0
"03/05/08","15:10:00",38993.000,"cc",28321.996,6.00,6,0.100,31755.000,0.200,4242.000,0.300,1192.000,0.500,1290.000,1.000,514.000,5.000,0
"03/05/08","15:10:06",39459.000,"cc",28282.438,6.00,6,0.100,32356.000,0.200,4151.000,0.300,1191.000,0.500,1293.000,1.000,468.000,5.000,0
"03/05/08","15:10:12",39250.000,"cc",28195.815,6.00,6,0.100,31973.000,0.200,4171.000,0.300,1235.000,0.500,1400.000,1.000,471.000,5.000,0
"03/05/08","15:10:18",39850.000,"cc",28262.813,6.00,6,0.100,32388.000,0.200,4312.000,0.300,1267.000,0.500,1373.000,1.000,510.000,5.000,0
"03/05/08","15:10:24",39670.000,"cc",28352.186,6.00,6,0.100,32433.000,0.200,4128.000,0.300,1228.000,0.500,1367.000,1.000,514.000,5.000,0
"03/05/08","15:10:30",39735.000,"cc",28419.770,6.00,6,0.100,32291.000,0.200,4316.000,0.300,1245.000,0.500,1373.000,1.000,510.000,5.000,0
"03/05/08","15:10:36",39476.000,"cc",28359.906,6.00,6,0.100,32112.000,0.200,4192.000,0.300,1305.000,0.500,1326.000,1.000,541.000,5.000,0
"03/05/08","15:10:42",39126.000,"cc",28307.848,6.00,6,0.100,31939.000,0.200,4189.000,0.300,1207.000,0.500,1272.000,1.000,519.000,5.000,0
"03/05/08","15:10:48",39382.000,"cc",28288.941,6.00,6,0.100,32220.000,0.200,4219.000,0.300,1169.000,0.500,1298.000,1.000,476.000,5.000,0
"03/05/08","15:10:54",39282.000,"cc",28277.762,6.00,6,0.100,32133.000,0.200,4085.000,0.300,1194.000,0.500,1359.000,1.000,511.000,5.000,0
"03/05/08","15:11:00",39501.000,"cc",28341.816,6.00,6,0.100,32205.000,0.200,4112.000,0.300,1254.000,0.500,1382.000,1.000,548.000,5.000,0
"03/05/08","15:11:06",39723.000,"cc",28386.563,6.00,6,0.100,32207.000,0.200,4192.000,0.300,1381.000,0.500,1423.000,1.000,520.000,5.000,0
"03/05/08","15:11:12",40555.000,"cc",28303.895,6.00,6,0.100,33022.000,0.200,4312.000,0.300,1282.000,0.500,1371.000,1.000,568.000,5.000,0
"03/05/08","15:11:18",41073.000,"cc",28290.496,6.00,6,0.100,33461.000,0.200,4410.000,0.300,1263.000,0.500,1389.000,1.000,550.000,5.000,0
"03/05/08","15:11:24",40889.000,"cc",28306.211,6.00,6,0.100,33486.000,0.200,4295.000,0.300,1237.000,0.500,1352.000,1.000,519.000,5.000,0
"03/05/08","15:11:30",40663.000,"cc",28338.375,6.00,6,0.100,33369.000,0.200,4314.000,0.300,1199.000,0.500,1313.000,1.000,468.000,5.000,0
"03/05/08","15:11:36",40223.000,"cc",28290.125,6.00,6,0.100,32883.000,0.200,4321.000,0.300,1227.000,0.500,1287.000,1.000,505.000,5.000,0
"03/05/08","15:11:42",40034.000,"cc",28258.434,6.00,6,0.100,32870.000,0.200,4319.000,0.300,1116.000,0.500,1305.000,1.000,424.000,5.000,0
"03/05/08","15:11:48",40202.000,"cc",28268.027,6.00,6,0.100,33006.000,0.200,4162.000,0.300,1216.000,0.500,1323.000,1.000,495.000,5.000,0
"03/05/08","15:11:54",40068.000,"cc",28315.545,6.00,6,0.100,32878.000,0.200,4206.000,0.300,1221.000,0.500,1273.000,1.000,490.000,5.000,0
"03/05/08","15:12:00",40378.000,"cc",28450.557,6.00,6,0.100,32917.000,0.200,4283.000,0.300,1265.000,0.500,1405.000,1.000,508.000,5.000,0
"03/05/08","15:12:06",39844.000,"cc",28209.940,6.00,6,0.100,32369.000,0.200,4312.000,0.300,1279.000,0.500,1355.000,1.000,529.000,5.000,0
"03/05/08","15:12:12",40213.000,"cc",28261.588,6.00,6,0.100,32886.000,0.200,4280.000,0.300,1220.000,0.500,1349.000,1.000,478.000,5.000,0
"03/05/08","15:12:18",40489.000,"cc",28276.813,6.00,6,0.100,32833.000,0.200,4451.000,0.300,1290.000,0.500,1364.000,1.000,551.000,5.000,0
"03/05/08","15:12:24",40284.000,"cc",28321.979,6.00,6,0.100,32912.000,0.200,4276.000,0.300,1233.000,0.500,1329.000,1.000,534.000,5.000,0
"03/05/08","15:12:30",40642.000,"cc",28278.598,6.00,6,0.100,33247.000,0.200,4344.000,0.300,1244.000,0.500,1299.000,1.000,508.000,5.000,0
"03/05/08","15:12:36",40893.000,"cc",28334.135,6.00,6,0.100,33623.000,0.200,4239.000,0.300,1252.000,0.500,1280.000,1.000,499.000,5.000,0
"03/05/08","15:12:42",40568.000,"cc",28289.672,6.00,6,0.100,33297.000,0.200,4306.000,0.300,1217.000,0.500,1292.000,1.000,456.000,5.000,0
"03/05/08","15:12:48",40542.000,"cc",28398.047,6.00,6,0.100,33370.000,0.200,4279.000,0.300,1159.000,0.500,1241.000,1.000,493.000,5.000,0
"03/05/08","15:12:54",39812.000,"cc",28252.568,6.00,6,0.100,32504.000,0.200,4283.000,0.300,1213.000,0.500,1357.000,1.000,455.000,5.000,0
"03/05/08","15:13:00",40035.000,"cc",28317.344,6.00,6,0.100,32685.000,0.200,4230.000,0.300,1215.000,0.500,1404.000,1.000,501.000,5.000,0
"03/05/08","15:13:06",40031.000,"cc",28273.119,6.00,6,0.100,32849.000,0.200,4227.000,0.300,1191.000,0.500,1270.000,1.000,494.000,5.000,0
"03/05/08","15:13:12",40667.000,"cc",28299.824,6.00,6,0.100,33439.000,0.200,4285.000,0.300,1197.000,0.500,1255.000,1.000,490.000,5.000,1.000
"03/05/08","15:13:18",40349.000,"cc",28344.656,6.00,6,0.100,32992.000,0.200,4325.000,0.300,1261.000,0.500,1306.000,1.000,465.000,5.000,0
"03/05/08","15:13:24",40132.000,"cc",28297.674,6.00,6,0.100,32671.000,0.200,4394.000,0.300,1273.000,0.500,1326.000,1.000,468.000,5.000,0
"03/05/08","15:13:30",40021.000,"cc",28321.074,6.00,6,0.100,32638.000,0.200,4267.000,0.300,1272.000,0.500,1356.000,1.000,488.000,5.000,0
"03/05/08","15:13:36",40205.000,"cc",28265.934,6.00,6,0.100,32904.000,0.200,4260.000,0.300,1234.000,0.500,1312.000,1.000,495.000,5.000,0
"03/05/08","15:13:42",39702.000,"cc",28395.820,6.00,6,0.100,32228.000,0.200,4229.000,0.300,1333.000,0.500,1387.000,1.000,525.000,5.000,0
"03/05/08","15:13:48",39664.000,"cc",28386.871,6.00,6,0.100,32351.000,0.200,4213.000,0.300,1238.000,0.500,1368.000,1.000,494.000,5.000,0
"03/05/08","15:13:54",39570.000,"cc",28309.596,6.00,6,0.100,31951.000,0.200,4289.000,0.300,1329.000,0.500,1475.000,1.000,526.000,5.000,0
"03/05/08","15:14:00",39771.000,"cc",28278.658,6.00,6,0.100,32455.000,0.200,4174.000,0.300,1270.000,0.500,1366.000,1.000,506.000,5.000,0
"03/05/08","15:14:06",39222.000,"cc",28217.447,6.00,6,0.100,31889.000,0.200,4166.000,0.300,1270.000,0.500,1376.000,1.000,521.000,5.000,0
"03/05/08","15:14:12",39451.000,"cc",28403.793,6.00,6,0.100,32109.000,0.200,4246.000,0.300,1206.000,0.500,1375.000,1.000,515.000,5.000,0
"03/05/08","15:14:18",39322.000,"cc",28319.842,6.00,6,0.100,31919.000,0.200,4273.000,0.300,1205.000,0.500,1380.000,1.000,545.000,5.000,0
"03/05/08","15:14:24",39494.000,"cc",28424.627,6.00,6,0.100,32094.000,0.200,4207.000,0.300,1287.000,0.500,1373.000,1.000,533.000,5.000,0
"03/05/08","15:14:30",39199.000,"cc",28320.147,6.00,6,0.100,31811.000,0.200,4234.000,0.300,1244.000,0.500,1356.000,1.000,554.000,5.000,0
"03/05/08","15:14:36",39207.000,"cc",28228.311,6.00,6,0.100,31880.000,0.200,4246.000,0.300,1260.000,0.500,1329.000,1.000,492.000,5.000,0
"03/05/08","15:14:42",39304.000,"cc",28320.850,6.00,6,0.100,31999.000,0.200,4098.000,0.300,1220.000,0.500,1472.000,1.000,515.000,5.000,0
"03/05/08","15:14:48",39327.000,"cc",28322.797,6.00,6,0.100,31840.000,0.200,4232.000,0.300,1318.000,0.500,1371.000,1.000,566.000,5.000,0
"03/05/08","15:14:54",38904.000,"cc",28288.256,6.00,6,0.100,31654.000,0.200,4141.000,0.300,1259.000,0.500,1353.000,1.000,497.000,5.000,0
"03/05/08","15:15:00",39147.000,"cc",28288.150,6.00,6,0.100,31809.000,0.200,4202.000,0.300,1233.000,0.500,1369.000,1.000,534.000,5.000,0
"03/05/08","15:15:06",39342.000,"cc",28295.465,6.00,6,0.100,31813.000,0.200,4215.000,0.300,1304.000,0.500,1454.000,1.000,556.000,5.000,0
"03/05/08","15:15:12",39896.000,"cc",28321.090,6.00,6,0.100,32330.000,0.200,4237.000,0.300,1323.000,0.500,1456.000,1.000,550.000,5.000,0
"03/05/08","15:15:18",39375.000,"cc",28418.541,6.00,6,0.100,31974.000,0.200,4179.000,0.300,1291.000,0.500,1409.000,1.000,522.000,5.000,0
"03/05/08","15:15:24",39295.000,"cc",28190.225,6.00,6,0.100,31921.000,0.200,4193.000,0.300,1315.000,0.500,1348.000,1.000,518.000,5.000,0
"03/05/08","15:15:30",39503.000,"cc",28320.824,6.00,6,0.100,32040.000,0.200,4245.000,0.300,1339.000,0.500,1369.000,1.000,510.000,5.000,0
"03/05/08","15:15:36",39176.000,"cc",28287.447,6.00,6,0.100,31647.000,0.200,4204.000,0.300,1289.000,0.500,1489.000,1.000,547.000,5.000,0
"03/05/08","15:15:42",39511.000,"cc",28274.574,6.00,6,0.100,31926.000,0.200,4241.000,0.300,1347.000,0.500,1461.000,1.000,536.000,5.000,0
"03/05/08","15:15:48",39338.000,"cc",28323.393,6.00,6,0.100,31939.000,0.200,4180.000,0.300,1301.000,0.500,1393.000,1.000,525.000,5.000,0
"03/05/08","15:15:54",39482.000,"cc",28309.166,6.00,6,0.100,32092.000,0.200,4164.000,0.300,1363.000,0.500,1345.000,1.000,518.000,5.000,0
"03/05/08","15:16:00",39586.000,"cc",28311.404,6.00,6,0.100,32048.000,0.200,4269.000,0.300,1273.000,0.500,1437.000,1.000,559.000,5.000,0
"03/05/08","15:16:06",39748.000,"cc",28264.522,6.00,6,0.100,32241.000,0.200,4172.000,0.300,1345.000,0.500,1464.000,1.000,526.000,5.000,0
"03/05/08","15:16:12",39073.000,"cc",28353.760,6.00,6,0.100,31749.000,0.200,4180.000,0.300,1311.000,0.500,1320.000,1.000,513.000,5.000,0
"03/05/08","15:16:18",39201.000,"cc",28368.502,6.00,6,0.100,31847.000,0.200,4050.000,0.300,1311.000,0.500,1458.000,1.000,535.000,5.000,0